Weather History for Hartford, CT

Change the Weather History Date:

Friday, May 2, 2014

  Actual Average Record
Temperature  
Mean Temperature 58 °F -  
Max Temperature 68 °F 67 °F 91 °F (2001)
Min Temperature 48 °F 44 °F 28 °F (1984)
Degree Days  
Heating Degree Days 7    
Growing Degree Days 8 (Base 50)    
Moisture  
Dew Point 38 °F    
Average Humidity 50    
Maximum Humidity 90    
Minimum Humidity 25    
Precipitation  
Precipitation 0.01 in - - ()
Sea Level Pressure  
Sea Level Pressure 29.74 in    
Wind  
Wind Speed 7 mph (West)    
Max Wind Speed 14 mph    
Max Gust Speed 24 mph    
Visibility 10 miles    
Events      
Averages and records for this station are not official NWS values.
T = Trace of Precipitation, MM = Missing Value Source: NWS Daily Summary

Daily Weather History Graph

Daily Weather History Graph

Search for Another Location

Airport:

Trip Planner

Search our weather history database for the weather conditions in past years. The results will help you decide how hot, cold, wet, or windy it might be!

Date:

Astronomy

May. 02, 2014 Rise Set
Actual Time 5:45 AM EDT 7:49 PM EDT
Civil Twilight 5:15 AM EDT 8:20 PM EDT
Nautical Twilight 4:38 AM EDT 8:57 PM EDT
Astronomical Twilight 3:57 AM EDT 9:38 PM EDT
Moon 8:19 AM EDT (5/2) 11:10 PM EDT (5/2)
Length of Visible Light 15h 04m
Length of Day
14h 04m
Waxing Crescent, 12% of the Moon is Illuminated
May 2
Waxing Crescent
May 6
First Quarter
May 14
Full
May 21
Last Quarter
May 28
New

Hourly Weather History & Observations

Time (EDT) Temp. Dew Point Humidity Pressure Visibility Wind Dir Wind Speed Gust Speed Precip Events Conditions
12:53 AM 57.9 °F 42.1 °F 56% 29.74 in 10.0 mi NNW 10.4 mph - 0.00 in   Overcast
1:53 AM 57.0 °F 39.9 °F 53% 29.76 in 10.0 mi WNW 6.9 mph - N/A   Overcast
2:53 AM 53.1 °F 39.9 °F 61% 29.73 in 10.0 mi NNW 6.9 mph - 0.01 in   Partly Cloudy
3:53 AM 53.1 °F 39.0 °F 59% 29.71 in 10.0 mi North 5.8 mph - N/A   Mostly Cloudy
4:53 AM 48.0 °F 42.1 °F 80% 29.72 in 10.0 mi Calm Calm - N/A   Mostly Cloudy
5:53 AM 48.9 °F 44.1 °F 83% 29.73 in 10.0 mi Calm Calm - N/A   Overcast
6:53 AM 48.9 °F 46.0 °F 90% 29.74 in 10.0 mi SE 3.5 mph - N/A   Mostly Cloudy
7:53 AM 53.1 °F 44.1 °F 71% 29.75 in 10.0 mi SSE 3.5 mph - N/A   Mostly Cloudy
8:53 AM 55.9 °F 42.1 °F 60% 29.75 in 10.0 mi SSE 3.5 mph - N/A   Partly Cloudy
9:53 AM 59.0 °F 39.0 °F 48% 29.75 in 10.0 mi Calm Calm - N/A   Clear
10:53 AM 62.1 °F 39.0 °F 43% 29.74 in 10.0 mi SSW 8.1 mph - N/A   Clear
11:53 AM 63.0 °F 36.0 °F 37% 29.73 in 10.0 mi SW 8.1 mph - N/A   Overcast
12:53 PM 63.0 °F 36.0 °F 37% 29.72 in 10.0 mi WSW 10.4 mph - N/A   Overcast
2:53 PM 68.0 °F 33.1 °F 27% 29.70 in 10.0 mi West 12.7 mph 19.6 mph N/A   Mostly Cloudy
3:53 PM 68.0 °F 30.9 °F 25% 29.69 in 10.0 mi West 11.5 mph 24.2 mph N/A   Clear
4:53 PM 66.9 °F 32.0 °F 27% 29.69 in 10.0 mi West 13.8 mph 23.0 mph N/A   Mostly Cloudy
5:53 PM 66.0 °F 32.0 °F 28% 29.71 in 10.0 mi WSW 10.4 mph 20.7 mph N/A   Mostly Cloudy
6:53 PM 64.9 °F 33.1 °F 31% 29.73 in 10.0 mi WSW 11.5 mph 17.3 mph N/A   Overcast
8:53 PM 62.1 °F 35.1 °F 37% 29.78 in 10.0 mi WSW 5.8 mph - N/A   Overcast
9:53 PM 61.0 °F 34.0 °F 36% 29.81 in 10.0 mi West 4.6 mph - N/A   Overcast
10:53 PM 57.9 °F 37.9 °F 47% 29.82 in 10.0 mi NNW 6.9 mph - N/A   Partly Cloudy
11:53 PM 54.0 °F 39.9 °F 59% 29.83 in 10.0 mi Calm Calm - N/A   Partly Cloudy